Погода в Вязьме

Поиск расширенной информации на нашем сайте:

Полезная информация:

Новости сайта



02.01.2020
Опубликован Долгосрочный прогноз погоды по городам России и ближнего зарубежья на январь 2020 года.
Карты: Прогноз на январь и февраль 2020 года, Сравнение прогнозируемой аномалии приземной температуры воздуха на январь 2020 года по разным моделям.




Погода в Вязьме - сегодня

Время (UTC), дата Ветер
(°,м/с) 
Видим.   Явления Облачность Т
(°С)
Тd
(°С)
f(%) Тe
(°С)
Pmin
(гПа)
dP
(гПа)
Po
(мм)
O2
(г/м3)
Тmin Tmax R s Состояние
почвы
06 04.06.20 250 (З) 4000 м  дымка{морось, туман}  10/10 300 м 
[Sc]
+12.2 +11.4 95 +16  1002.2  -0.4  730  279  +11.3      мокрая 
09 04.06.20 230 (ЮЗ) 10 км    10/10 300 м 
[Sc]
+15.2 +10.3 73 +18  1002.8  0.8  731  277           
12 04.06.20 260 (З) 10 км    9/9 600 м 
[Cu Sc]
+17.1 +10.1 63 +20  1002.2  -0.3  730  275           
15 04.06.20 230 (ЮЗ) 1{11}  10 км  {гроза, ливн. осадки}  10/9 300 м кучево-дожд., средняя 
[Cb cap|Ac und]
+14 +9.9 76 +17  1003.6  731  278      0.3     
18 04.06.20 150 (ЮВ) 10 км  {гроза, ливн. осадки}  9/3 300 м средняя, верхняя 
[Sc|Ac trans|Ci fib]
+11.2 +9.7 90 +12  1004.6  0.7  732  281    +18.6  0.3     
21 04.06.20 150 (ЮВ) 4000 м  дымка  4/0 средняя, верхняя 
[Ac trans|Ci fib]
+9.1 +8.2 94 +9  1005.4  0.5  732  284           
00 05.06.20 140 (ЮВ) 4000 м  дымка  9/0 средняя, верхняя 
[Ac trans|Ci fib]
+8.6 +7.9 95 +9  1006  0.6  732  285           
03 05.06.20 170 (Ю) 4000 м  дымка  10/10 200 м 
[St]
+8.8 +8.2 96 +8  1006.7  0.7  733  285  +7.7         
06 05.06.20 160 (Ю) 4000 м  дымка  10/10 200 м 
[St]
+9.6 +9 96 +10  1007.7  734  284  +7.7        мокрая 
09 05.06.20 150 (ЮВ) 10 км    10/10 300 м 
[Sc]
+12.1 +9.7 85 +13  1007.4  734  281           
12 05.06.20 180 (Ю) 10 км  {ливн. осадки}  6/6 600 м 
[Sc]
+15.2 +8.8 66 +16  1007.2  0.1  734  278           
15 05.06.20 270 (З) 10 км    6/4 600 м средняя 
[Sc|Ac trans]
+14.9 +8.6 66 +16  1008  0.7  734  279      0.5     
18 05.06.20 140 (ЮВ) 10 км    ясно 
+12.8 +9.2 79 +15  1008.9  0.7  735  281    +15.8  0.5     
21 05.06.20 160 (Ю) 4000 м  дымка  ясно 
+7.5 +6.9 96 +8  1010.8  1.3  736  287           
00 06.06.20 140 (ЮВ) 4000 м  дымка  ясно 
+6 +5.6 97 +7  1011  736  289           
03 06.06.20 110 (В) 4000 м  дымка  4/4 600 м 
[Sc]
+9.6 +9 96 +11  1010.5  0.1  736  285  +6         
06 06.06.20 150 (ЮВ) 10 км    8/6 600 м средняя 
[Sc|Ac trans]
+16.3 +13.4 83 +23  1009.8  0.1  736  277  +6        мокрая 
09 06.06.20 160 (Ю) 10 км    9/8 600 м средняя 
[Sc|Ac trans]
+20.9 +15.3 70 +31  1009.7  0.4  736  272           
12 06.06.20 200 (Ю) 10 км    10/8 300 м средняя 
[Sc|Ac As]
+21.9 +14 61 +29  1010.2  0.6  736  272           
15 06.06.20 150 (ЮВ) 10 км  {ливн. осадки}  8/4 600 м средняя 
[Sc|Ac trans]
+21.6 +15.5 68 +32  1009.6  -0.6  736  272      0.6     
18 06.06.20 170 (Ю) 10 км  в посл. час ливневой дождь  9/8 600 м кучево-дожд., средняя 
[Cb cap|Ac trans]
+19 +15.8 82 +32  1011.2  1.3  737  274    +22.7  0.6     
21 06.06.20 200 (Ю) 4000 м  дымка{гроза}  1/0 средняя 
[Ac trans]
+15.2 +14 93 +24  1012.2  0.6  737  279           
00 07.06.20 110 (В) 4000 м  дымка{гроза}  ясно 
+11.9 +11.1 95 +16  1014.1  1.5  739  283           
03 07.06.20 тихо ()   0500 м  туман  ясно 
+13.6 +12.8 95 +19  1015.2  1.3  740  281  +10.8    0.0     
06 07.06.20 050 (СВ) 10 км  {туман}  ясно 
+21.9 +14.6 63 +30  1015.5  1.1  740  273  +10.8        влажная 
Время (UTC), дата Ветер
(°,м/с) 
Видим.   Явления Облачность Т
(°С)
Тd
(°С)
f(%) Тe
(°С)
Pmin
(гПа)
dP
(гПа)
Po
(мм)
O2
(г/м3)
Тmin Tmax R s Состояние
почвы

Для получения пояснительной информации подведите курсор к названию столбца.

ПОГОДА в Вязьме - архив

Всё, что Вы хотите узнать о погоде в Вязьме - удобно и подробно!

Выберите нужную дату (начиная с 1 января 2019* года) и нажмите кнопку "Найти".
Будут отображены архивные сводки погоды по пункту Вязьма, начиная с указанной даты.


Отображать данные в формате CSV (для использования в таблицах Excel)


Внимание! Наш архив погоды предназначен исключительно для личного некоммерческого использования в познавательных целях. Если Вам необходимы официальные справки о состоянии погоды (для производственных, юридических, коммерческих и т.п. целей), обращайтесь в органы Росгидромета.

*Примечание: данная дата относится к архиву по метеостанциям СССР (Россия, СНГ, Балтия).
Архив по метеостанциям Зарубежной Европы и Азии (кроме Китая) хранится 10 дней, по другим регионам земного шара (Китай, Африка, Америка, Австралия, Океания) - 1 день.

Вязьма - район местоположения метеостанции


Название, широта, долгота, высота метеостанции:
Вязьма 55.2°ш. 34.4°д. 251 м над ур. моря [Российская Федерация]

Дополнительная информация

В oтличие oт бoльшинства пoгoдных сайтoв мы публикуем пoдрoбную метеoинфoрмацию в детальнoм прoфессиoнальнoм фoрмате.

Характеристики температуры и влажнoсти вoздуха измеряются на высoте 2 м в тени вдали oт зданий и деревьев.
Скoрoсть ветра измеряется на высoте 10 м (на урoвне рoста челoвека скoрoсть ветра ниже в 1.5-2 раза). Если метеoстанция нахoдится в гoрoде или в лесу, тo скoрoсть ветра занижена на 2-4 м/с пo сравнению с oткрытым местoм. Скoрoсть ветра над акватoриями крупных рек и oзёр, а также на вершинах хoлмoв на 2-5 м/с выше, чем в oбычных услoвиях.
Атмoсфернoе давление в разных тoчках местнoсти мoжет значительнo oтличаться oт давления на метеoстанции, в зависимoсти oт услoвий рельефа (при пoдъёме на 10 м давление пoнижается примернo на 1 мм рт.ст.).